Location: Melizzano
(41.1500°N, 14.5000°E)
Time: 08:37:48
(UTC+00:00)

Cosmos 1709 Rocket - Pass Details

Date: 27 September 2021
Orbit: 948 x 1002 km, 82.9° (Epoch: 27 October)

Event Time Altitude Azimuth Distance (km) Brightness Sun altitude
Rises 02:14:22 0° 8° (N) 3,627 7.4 -30.0°
Reaches altitude 10° 02:17:56 10° 29° (NNE) 2,679 6.9 -29.4°
Maximum altitude 02:21:41 17° 67° (ENE) 2,235 6.7 -28.8°
Drops below altitude 10° 02:25:26 10° 105° (ESE) 2,680 6.9 -28.1°
Sets 02:28:58 0° 126° (SE) 3,629 7.4 -27.5°
